Regional Weather Roundup
Issued by NWS

Home | Current Version | Previous Version | Text Only | Print | Product List | Glossary Off
Versions: 1 2 3 4 5 6 7 8 9 10 11 12 13 14 15 16 17 18 19 20 21 22 23 24 25 26 27 28 29 30 31 32 33 34 35 36 37 38 39 40 41 42 43 44 45 46 47 48 49 50

000
ASUS45 KBOI 010110
RWRID

IDAHO REGIONAL WEATHER ROUNDUP
NATIONAL WEATHER SERVICE BOISE ID
700 PM MDT FRI SEP 30 2016

NOTE: "FAIR" INDICATES FEW OR NO CLOUDS BELOW 12000 FEET
WITH NO SIGNIFICANT WEATHER AND/OR OBSTRUCTIONS TO VISIBILITY

IDZ012-014-010200-
SOUTHWEST IDAHO


CITY           SKY/WX    TMP DP  RH WIND       PRES   REMARKS
BOISE          MOCLDY    81  30  15 SE10      29.86F
CALDWELL       MOCLDY    80  41  24 E6        29.83F
MOUNTAIN HOME  PTCLDY    79  41  25 E16       29.87F
$$

IDZ016-017-010200-
SOUTHCENTRAL IDAHO


CITY           SKY/WX    TMP DP  RH WIND       PRES   REMARKS
BURLEY         CLEAR     69  50  50 E7        30.00F
JEROME         PTCLDY    72  45  37 NE10      29.99F
TWIN FALLS     PTCLDY    68  52  56 E6        29.99F
$$

IDZ019>023-010200-
SOUTHEAST IDAHO


CITY           SKY/WX    TMP DP  RH WIND       PRES   REMARKS
IDAHO FALLS    PTCLDY    73  42  32 SE3       30.09F
POCATELLO      PTCLDY    70  47  43 S7        30.07F
REXBURG        CLEAR     69  46  43 SE6       30.10F
$$

IDZ006-010-011-018-031-032-010200-
CENTRAL IDAHO MOUNTAINS


CITY           SKY/WX    TMP DP  RH WIND       PRES   REMARKS
MCCALL         MOCLDY    67  33  28 S6        29.99F
HAILEY         PTCLDY    64  48  55 CALM      30.10F
STANLEY          N/A     63  36  36 S3        30.12F
SALMON         CLOUDY    72  39  30 E5        29.98F
CHALLIS        PTCLDY    68  39  34 S8        30.05S
$$

IDZ002-004-006-007-026-010200-
NORTHERN IDAHO


CITY           SKY/WX    TMP DP  RH WIND       PRES   REMARKS
LEWISTON       CLOUDY    76  41  28 W8        29.80F
LOWELL           N/A     65  54  67 CALM      29.80R
COEUR D`ALENE  CLOUDY    70  54  56 W6        29.91R
MULLAN PASS    MOCLDY    59  35  40 NW3       30.05F
$$



USA.gov is the U.S. government's official web portal to all federal, state and local government web resources and services.